loading
|

STARLINK-11175, 60191

Orbit data source: Space-Track

STARLINK-11175, 60191 is a payload satellite owned by SpaceX/Seattle (US) in LEO that was launched on Wed, 03 Jul 2024 UTC via an FALCON 9 launch vehicle from the Air Force Eastern Test Range (AFETR). Payloads include a variety of satellites, spacecraft, and rockets equipped with specific instruments for various scientific and technological missions. These include communications satellites like Starlink; space stations such as the ISS; scientific satellites like the Hubble; Earth observation satellites from companies like Planet Labs, Umbra, and HawkEye 360; GPS; miniature CubeSats for education and research; and military/defense satellites.

Loading next visibility...
Loading greatness...
STARLINK-11175 details
Identifier
60191, 2024-124J
Orbit
LEO
Last TLE update9 hours ago
Origin
Flag of USSpaceX/Seattle (US)
ManufacturerSpaceX/Seattle
Mission statusOperational
MissionUnknown
Bus & MotorSTARLINK V2M, Unknown motor
Mass750 kg wet, ~700 kg dry
Launch date (UTC)
2024-07-03 (3 months ago)
Launch vehicle
FALCON 9
Launch site
Air Force Eastern Test Range (AFETR)
Object type
Payload
Rocket body
Debris
Radar Cross SectionLarge (>1 m²)

Expand to show TLE details & history

TLE from 9 hours ago
0 STARLINK-11175
1 60191U 24124J   24261.57114458  .00048798  00000-0  40493-3 0  9999
2 60191  53.1552 294.1906 0001285 131.1324 228.9805 15.69730042 12017
Epoch: 2024-09-17T13:42Z
Definitive object data (Epoch: 2024-09-17T13:42:26.891Z)
Latitude-0.00003°
Longitude91.59464°
Altitude361.152 km
Speed7.694 km/s
True Right ascension19h 36m 45s
True Declination0° 00' 00"
Sunlit
Object was in full shadow at TLE epoch
Predictive object data (real-time)
Latitude-53.06174°
Longitude7.46507°
Altitude378.673 km
Speed7.682 km/s
Apparent Right ascension06h 48m 29s
Apparent Declination-79° 30' 44"
Sunlit
Object is in daylight
Predictive observer data (real-time)
Local Sidereal Time15:19:40
Azimuth191.899° SSW
Elevation-45.767°
Doppler factor1
Orbital elements
Apogee360.797 km
Perigee359.065 km
Semi-major axis6,738.068 km
Eccentricity0.0001285
Inclination53.1552°
RAAN294.1906°
Arg. of periapsis131.1324°
True anomaly228.96939°
Mean anomaly228.9805°
Eccentric anomaly228.97495°
Mean motion3.9241 °/min
BSTAR0.00040493
Period91.74 mins
No data available

STARLINK-11175 Visibility forecast

Observer location: 39.9160978°, -105.1181434

STARLINK-11175 is not visible in the next 10 days
Span
Click to sort rows by Start time (UTC) header in descending order
Start Az.
Max El. time (UTC)
Max El. Az.
Max El.
End time (UTC)
End Az.